• en Belgique
  • Liste des pays
  • À 7 jours
  • Température de l'eau
  • Carte satellitaire
  • Carte météo
  • Widgets météo
  • user-avatar
    Se connecter

    Météo par heure à Bouillon

    Ce jour, 19 Février, Lundi

    Heure Température Précipitation Vent Pression Humidité
    00:00 -4°C° 0 mm 2 m/s 729 mmHg 86%
    01:00 -4°C° 0 mm 2 m/s 728 mmHg 85%
    02:00 -2°C° 0 mm 1 m/s 728 mmHg 85%
    03:00 -2°C° 0 mm 1 m/s 728 mmHg 85%
    04:00 -2°C° 0 mm 1 m/s 727 mmHg 84%
    05:00 -2°C° 0 mm 1 m/s 727 mmHg 84%
    06:00 -2°C° 0 mm 1 m/s 727 mmHg 83%
    07:00 -1°C° 0 mm 1 m/s 727 mmHg 79%
    08:00 0°C° 0 mm 1 m/s 727 mmHg 75%
    09:00 -1°C° 0 mm 2 m/s 727 mmHg 72%
    10:00 +2°C° 0 mm 1 m/s 727 mmHg 68%
    11:00 +3°C° 0 mm 1 m/s 727 mmHg 64%
    12:00 +4°C° 0 mm 1 m/s 727 mmHg 60%
    13:00 +4°C° 0 mm 1 m/s 726 mmHg 60%
    14:00 +5°C° 0 mm 1 m/s 726 mmHg 60%
    15:00 +5°C° 0 mm 1 m/s 726 mmHg 61%
    16:00 +4°C° 0,1 mm 1 m/s 725 mmHg 65%
    17:00 +3°C° 0,1 mm 1 m/s 725 mmHg 70%
    18:00 +2°C° 0,1 mm 1 m/s 725 mmHg 75%
    19:00 +1°C° 0,1 mm 1 m/s 724 mmHg 76%
    20:00 +1°C° 0,1 mm 1 m/s 724 mmHg 77%
    21:00 +1°C° 0,1 mm 1 m/s 724 mmHg 78%
    22:00 +1°C° 0,1 mm 1 m/s 724 mmHg 79%
    23:00 +1°C° 0,1 mm 1 m/s 724 mmHg 80%

    Demain, 20 Février, Mardi

    Heure Température Précipitation Vent Pression Humidité
    00:00 +1°C° 0,1 mm 1 m/s 724 mmHg 81%
    01:00 +1°C° 0,1 mm 1 m/s 723 mmHg 82%
    02:00 -1°C° 0,1 mm 2 m/s 723 mmHg 83%
    03:00 -1°C° 0,1 mm 2 m/s 723 mmHg 84%
    04:00 -1°C° 0,1 mm 2 m/s 723 mmHg 84%
    05:00 +1°C° 0,1 mm 1 m/s 723 mmHg 85%
    06:00 +1°C° 0,1 mm 1 m/s 723 mmHg 86%
    07:00 +1°C° 0,1 mm 1 m/s 723 mmHg 84%
    08:00 +2°C° 0,1 mm 1 m/s 723 mmHg 82%
    09:00 +2°C° 0,1 mm 1 m/s 724 mmHg 80%
    10:00 +2°C° 0 mm 2 m/s 724 mmHg 77%
    11:00 +3°C° 0 mm 2 m/s 724 mmHg 73%
    12:00 +4°C° 0 mm 2 m/s 724 mmHg 70%
    13:00 +4°C° 0 mm 2 m/s 724 mmHg 69%
    14:00 +3°C° 0 mm 3 m/s 724 mmHg 69%
    15:00 +3°C° 0 mm 3 m/s 724 mmHg 68%
    16:00 +1°C° 0 mm 3 m/s 725 mmHg 73%
    17:00 0°C° 0 mm 3 m/s 725 mmHg 77%
    18:00 -2°C° 0 mm 3 m/s 725 mmHg 82%
    19:00 -2°C° 0 mm 3 m/s 726 mmHg 82%
    20:00 -2°C° 0 mm 3 m/s 727 mmHg 82%
    21:00 -4°C° 0 mm 3 m/s 727 mmHg 82%
    22:00 -4°C° 0 mm 3 m/s 727 mmHg 83%
    23:00 -5°C° 0 mm 3 m/s 728 mmHg 84%

    Après-demain, 21 Février, Mercredi

    Heure Température Précipitation Vent Pression Humidité
    00:00 -5°C° 0 mm 3 m/s 728 mmHg 85%
    01:00 -5°C° 0 mm 3 m/s 728 mmHg 86%
    02:00 -5°C° 0 mm 3 m/s 728 mmHg 86%
    03:00 -5°C° 0 mm 3 m/s 728 mmHg 86%
    04:00 -5°C° 0 mm 3 m/s 729 mmHg 86%
    05:00 -5°C° 0 mm 3 m/s 729 mmHg 86%
    06:00 -6°C° 0 mm 3 m/s 729 mmHg 86%
    07:00 -4°C° 0 mm 4 m/s 729 mmHg 79%
    08:00 -3°C° 0 mm 4 m/s 730 mmHg 73%
    09:00 -2°C° 0 mm 4 m/s 730 mmHg 67%
    10:00 -1°C° 0 mm 4 m/s 730 mmHg 62%
    11:00 0°C° 0 mm 4 m/s 730 mmHg 57%
    12:00 +1°C° 0 mm 4 m/s 730 mmHg 53%
    13:00 +1°C° 0 mm 4 m/s 729 mmHg 54%
    14:00 +1°C° 0 mm 5 m/s 729 mmHg 55%
    15:00 +1°C° 0 mm 5 m/s 728 mmHg 55%
    16:00 0°C° 0 mm 4 m/s 728 mmHg 62%
    17:00 -2°C° 0 mm 4 m/s 728 mmHg 68%
    18:00 -4°C° 0 mm 3 m/s 728 mmHg 74%
    19:00 -4°C° 0 mm 3 m/s 728 mmHg 75%
    20:00 -4°C° 0 mm 3 m/s 728 mmHg 76%
    21:00 -5°C° 0 mm 3 m/s 728 mmHg 77%
    22:00 -5°C° 0 mm 3 m/s 728 mmHg 78%
    23:00 -5°C° 0 mm 3 m/s 728 mmHg 79%

    22 Février, Jeudi

    Heure Température Précipitation Vent Pression Humidité
    00:00 -5°C° 0 mm 4 m/s 727 mmHg 80%
    01:00 -5°C° 0 mm 4 m/s 727 mmHg 80%
    02:00 -7°C° 0 mm 4 m/s 727 mmHg 80%
    03:00 -7°C° 0 mm 4 m/s 727 mmHg 80%
    04:00 -7°C° 0 mm 4 m/s 727 mmHg 80%
    05:00 -7°C° 0 mm 4 m/s 726 mmHg 79%
    06:00 -7°C° 0 mm 4 m/s 726 mmHg 79%
    07:00 -6°C° 0 mm 5 m/s 727 mmHg 73%
    08:00 -5°C° 0 mm 5 m/s 727 mmHg 68%
    09:00 -4°C° 0 mm 6 m/s 727 mmHg 62%
    10:00 -3°C° 0 mm 6 m/s 727 mmHg 57%
    11:00 -2°C° 0 mm 6 m/s 726 mmHg 53%
    12:00 -1°C° 0 mm 6 m/s 726 mmHg 48%
    13:00 -1°C° 0 mm 6 m/s 726 mmHg 48%
    14:00 -1°C° 0 mm 6 m/s 726 mmHg 48%
    15:00 -1°C° 0 mm 6 m/s 725 mmHg 47%
    16:00 -2°C° 0 mm 6 m/s 725 mmHg 51%
    17:00 -4°C° 0 mm 5 m/s 726 mmHg 55%
    18:00 -4°C° 0 mm 4 m/s 726 mmHg 58%
    19:00 -5°C° 0 mm 5 m/s 726 mmHg 59%
    20:00 -6°C° 0 mm 5 m/s 726 mmHg 59%
    21:00 -6°C° 0 mm 5 m/s 726 mmHg 59%
    22:00 -6°C° 0 mm 5 m/s 726 mmHg 62%
    23:00 -6°C° 0 mm 5 m/s 726 mmHg 64%

    23 Février, Vendredi

    Heure Température Précipitation Vent Pression Humidité
    00:00 -7°C° 0 mm 5 m/s 726 mmHg 66%
    01:00 -7°C° 0 mm 5 m/s 726 mmHg 68%
    02:00 -7°C° 0 mm 5 m/s 725 mmHg 69%
    03:00 -7°C° 0 mm 5 m/s 725 mmHg 70%
    04:00 -7°C° 0 mm 5 m/s 725 mmHg 72%
    05:00 -7°C° 0 mm 5 m/s 725 mmHg 73%
    06:00 -7°C° 0 mm 5 m/s 725 mmHg 74%
    07:00 -6°C° 0 mm 6 m/s 726 mmHg 70%
    08:00 -6°C° 0 mm 6 m/s 726 mmHg 65%
    09:00 -5°C° 0 mm 6 m/s 726 mmHg 60%
    10:00 -4°C° 0 mm 6 m/s 726 mmHg 56%
    11:00 -3°C° 0 mm 6 m/s 726 mmHg 51%
    12:00 -2°C° 0 mm 6 m/s 726 mmHg 46%
    13:00 -2°C° 0 mm 6 m/s 726 mmHg 45%
    14:00 -2°C° 0 mm 6 m/s 726 mmHg 45%
    15:00 -1°C° 0 mm 6 m/s 726 mmHg 45%
    16:00 -2°C° 0 mm 5 m/s 726 mmHg 49%
    17:00 -4°C° 0 mm 5 m/s 726 mmHg 53%
    18:00 -5°C° 0 mm 4 m/s 726 mmHg 57%
    19:00 -5°C° 0 mm 4 m/s 726 mmHg 58%
    20:00 -6°C° 0 mm 5 m/s 727 mmHg 59%
    21:00 -7°C° 0 mm 5 m/s 727 mmHg 60%
    22:00 -7°C° 0 mm 5 m/s 727 mmHg 60%
    23:00 -7°C° 0 mm 5 m/s 728 mmHg 61%

    24 Février, Samedi

    Heure Température Précipitation Vent Pression Humidité
    00:00 -8°C° 0 mm 5 m/s 728 mmHg 61%
    01:00 -8°C° 0 mm 5 m/s 728 mmHg 60%
    02:00 -8°C° 0 mm 5 m/s 728 mmHg 60%
    03:00 -8°C° 0 mm 5 m/s 728 mmHg 59%
    04:00 -8°C° 0 mm 5 m/s 729 mmHg 58%
    05:00 -8°C° 0 mm 5 m/s 729 mmHg 56%
    06:00 -10°C° 0 mm 5 m/s 729 mmHg 55%
    07:00 -8°C° 0 mm 5 m/s 730 mmHg 50%
    08:00 -8°C° 0 mm 6 m/s 730 mmHg 46%
    09:00 -8°C° 0 mm 6 m/s 731 mmHg 42%
    10:00 -6°C° 0 mm 6 m/s 731 mmHg 39%
    11:00 -5°C° 0 mm 6 m/s 731 mmHg 37%
    12:00 -4°C° 0 mm 6 m/s 731 mmHg 34%
    13:00 -4°C° 0 mm 6 m/s 731 mmHg 35%
    14:00 -4°C° 0 mm 6 m/s 731 mmHg 35%
    15:00 -4°C° 0 mm 6 m/s 730 mmHg 35%
    16:00 -5°C° 0 mm 5 m/s 731 mmHg 40%
    17:00 -6°C° 0 mm 5 m/s 731 mmHg 44%
    18:00 -8°C° 0 mm 4 m/s 731 mmHg 49%
    19:00 -8°C° 0 mm 4 m/s 731 mmHg 49%
    20:00 -9°C° 0 mm 4 m/s 732 mmHg 49%
    21:00 -10°C° 0 mm 5 m/s 732 mmHg 48%
    22:00 -9°C° 0 mm 4 m/s 732 mmHg 48%
    23:00 -10°C° 0 mm 4 m/s 732 mmHg 48%
    Voir plus